When you browse on this site, cookies collect data to enhance your experience and personalize the content and advertising you see.
Visit our Privacy Policy to learn more. By continuing to use the site, you agree to this use of cookies and data.
  • en Suisse
  • Liste des pays
  • À 7 jours
  • Température de l'eau
  • Carte satellitaire
  • Carte météo
  • Widgets météo
  • user-avatar
    Se connecter

    Météo par heure à Baraki Barak

    Ce jour, 25 Avril, Jeudi

    Heure Température Précipitation Vent Pression Humidité
    00:00 +13°C° 0 mm 3 m/s 598 mmHg 54%
    01:00 +14°C° 0 mm 2 m/s 597 mmHg 57%
    02:00 +13°C° 0 mm 2 m/s 597 mmHg 60%
    03:00 +12°C° 0 mm 2 m/s 597 mmHg 61%
    04:00 +12°C° 0 mm 2 m/s 597 mmHg 61%
    05:00 +12°C° 0 mm 1 m/s 597 mmHg 62%
    06:00 +12°C° 0 mm 2 m/s 597 mmHg 55%
    07:00 +13°C° 0 mm 2 m/s 598 mmHg 49%
    08:00 +14°C° 0 mm 2 m/s 599 mmHg 43%
    09:00 +14°C° 0 mm 4 m/s 599 mmHg 35%
    10:00 +16°C° 0 mm 5 m/s 600 mmHg 28%
    11:00 +18°C° 0 mm 7 m/s 600 mmHg 21%
    12:00 +20°C° 0 mm 8 m/s 600 mmHg 19%
    13:00 +21°C° 0 mm 10 m/s 601 mmHg 18%
    14:00 +21°C° 0 mm 12 m/s 601 mmHg 17%
    15:00 +21°C° 0 mm 12 m/s 600 mmHg 17%
    16:00 +21°C° 0 mm 11 m/s 600 mmHg 17%
    17:00 +21°C° 0 mm 11 m/s 600 mmHg 17%
    18:00 +19°C° 0 mm 9 m/s 600 mmHg 20%
    19:00 +17°C° 0 mm 7 m/s 599 mmHg 24%
    20:00 +17°C° 0 mm 4 m/s 599 mmHg 27%
    21:00 +15°C° 0 mm 4 m/s 599 mmHg 30%
    22:00 +14°C° 0 mm 3 m/s 599 mmHg 33%
    23:00 +13°C° 0 mm 3 m/s 599 mmHg 36%

    Demain, 26 Avril, Vendredi

    Heure Température Précipitation Vent Pression Humidité
    00:00 +13°C° 0 mm 2 m/s 598 mmHg 38%
    01:00 +13°C° 0 mm 2 m/s 598 mmHg 39%
    02:00 +12°C° 0 mm 2 m/s 597 mmHg 41%
    03:00 +12°C° 0 mm 2 m/s 597 mmHg 42%
    04:00 +10°C° 0 mm 2 m/s 597 mmHg 43%
    05:00 +11°C° 0 mm 1 m/s 596 mmHg 44%
    06:00 +10°C° 0 mm 2 m/s 597 mmHg 40%
    07:00 +12°C° 0 mm 2 m/s 598 mmHg 36%
    08:00 +13°C° 0 mm 2 m/s 598 mmHg 32%
    09:00 +14°C° 0 mm 2 m/s 599 mmHg 29%
    10:00 +16°C° 0 mm 2 m/s 599 mmHg 26%
    11:00 +17°C° 0 mm 2 m/s 600 mmHg 23%
    12:00 +18°C° 0 mm 3 m/s 600 mmHg 22%
    13:00 +19°C° 0 mm 3 m/s 600 mmHg 20%
    14:00 +20°C° 0 mm 4 m/s 600 mmHg 18%
    15:00 +20°C° 0 mm 4 m/s 600 mmHg 18%
    16:00 +20°C° 0 mm 5 m/s 600 mmHg 18%
    17:00 +20°C° 0 mm 6 m/s 600 mmHg 18%
    18:00 +19°C° 0 mm 5 m/s 600 mmHg 20%
    19:00 +18°C° 0 mm 4 m/s 600 mmHg 23%
    20:00 +17°C° 0 mm 3 m/s 600 mmHg 26%
    21:00 +17°C° 0 mm 2 m/s 600 mmHg 28%
    22:00 +16°C° 0 mm 2 m/s 600 mmHg 31%
    23:00 +15°C° 0 mm 2 m/s 600 mmHg 33%

    Après-demain, 27 Avril, Samedi

    Heure Température Précipitation Vent Pression Humidité
    00:00 +14°C° 0 mm 2 m/s 599 mmHg 35%
    01:00 +14°C° 0 mm 1 m/s 599 mmHg 36%
    02:00 +13°C° 0 mm 1 m/s 599 mmHg 38%
    03:00 +12°C° 0 mm 1 m/s 598 mmHg 39%
    04:00 +12°C° 0 mm 1 m/s 598 mmHg 40%
    05:00 +11°C° 0 mm 1 m/s 598 mmHg 41%
    06:00 +12°C° 0 mm 1 m/s 598 mmHg 36%
    07:00 +13°C° 0 mm 1 m/s 599 mmHg 32%
    08:00 +14°C° 0 mm 1 m/s 600 mmHg 27%
    09:00 +15°C° 0 mm 1 m/s 600 mmHg 25%
    10:00 +16°C° 0 mm 1 m/s 600 mmHg 23%
    11:00 +18°C° 0 mm 1 m/s 601 mmHg 21%
    12:00 +18°C° 0 mm 2 m/s 601 mmHg 20%
    13:00 +19°C° 0 mm 2 m/s 600 mmHg 19%
    14:00 +20°C° 0 mm 3 m/s 600 mmHg 18%
    15:00 +20°C° 0 mm 3 m/s 600 mmHg 18%
    16:00 +20°C° 0 mm 4 m/s 600 mmHg 18%
    17:00 +21°C° 0 mm 4 m/s 600 mmHg 18%
    18:00 +20°C° 0 mm 4 m/s 600 mmHg 21%
    19:00 +19°C° 0 mm 3 m/s 600 mmHg 23%
    20:00 +18°C° 0 mm 3 m/s 600 mmHg 25%
    21:00 +17°C° 0 mm 2 m/s 600 mmHg 28%
    22:00 +16°C° 0 mm 2 m/s 600 mmHg 31%
    23:00 +15°C° 0 mm 2 m/s 599 mmHg 33%

    28 Avril, Dimanche

    Heure Température Précipitation Vent Pression Humidité
    00:00 +15°C° 0 mm 1 m/s 599 mmHg 35%
    01:00 +14°C° 0 mm 1 m/s 598 mmHg 36%
    02:00 +13°C° 0 mm 1 m/s 598 mmHg 38%
    03:00 +13°C° 0 mm 1 m/s 598 mmHg 39%
    04:00 +12°C° 0 mm 1 m/s 597 mmHg 41%
    05:00 +12°C° 0 mm 1 m/s 597 mmHg 42%
    06:00 +12°C° 0 mm 0 m/s 598 mmHg 37%
    07:00 +13°C° 0 mm 0 m/s 598 mmHg 32%
    08:00 +14°C° 0 mm 0 m/s 599 mmHg 27%
    09:00 +15°C° 0 mm 0 m/s 599 mmHg 25%
    10:00 +16°C° 0 mm 0 m/s 600 mmHg 23%
    11:00 +19°C° 0 mm 1 m/s 600 mmHg 21%
    12:00 +20°C° 0 mm 1 m/s 600 mmHg 19%
    13:00 +21°C° 0 mm 1 m/s 600 mmHg 17%
    14:00 +21°C° 0 mm 2 m/s 600 mmHg 16%
    15:00 +21°C° 0 mm 2 m/s 599 mmHg 16%
    16:00 +21°C° 0 mm 3 m/s 599 mmHg 16%
    17:00 +22°C° 0 mm 3 m/s 599 mmHg 16%
    18:00 +21°C° 0 mm 3 m/s 599 mmHg 19%
    19:00 +20°C° 0 mm 2 m/s 599 mmHg 22%
    20:00 +20°C° 0 mm 1 m/s 599 mmHg 25%
    21:00 +19°C° 0 mm 1 m/s 599 mmHg 27%
    22:00 +17°C° 0 mm 2 m/s 599 mmHg 29%
    23:00 +16°C° 0 mm 2 m/s 598 mmHg 31%

    29 Avril, Lundi

    Heure Température Précipitation Vent Pression Humidité
    00:00 +15°C° 0 mm 1 m/s 598 mmHg 34%
    01:00 +15°C° 0 mm 1 m/s 597 mmHg 36%
    02:00 +14°C° 0 mm 1 m/s 597 mmHg 38%
    03:00 +13°C° 0 mm 1 m/s 597 mmHg 39%
    04:00 +13°C° 0 mm 1 m/s 596 mmHg 40%
    05:00 +12°C° 0 mm 1 m/s 596 mmHg 41%
    06:00 +13°C° 0 mm 1 m/s 597 mmHg 36%
    07:00 +15°C° 0 mm 1 m/s 598 mmHg 32%
    08:00 +16°C° 0 mm 1 m/s 598 mmHg 27%
    09:00 +18°C° 0 mm 1 m/s 599 mmHg 24%
    10:00 +19°C° 0 mm 1 m/s 599 mmHg 21%
    11:00 +20°C° 0 mm 1 m/s 599 mmHg 18%
    12:00 +21°C° 0 mm 2 m/s 599 mmHg 16%
    13:00 +23°C° 0 mm 2 m/s 599 mmHg 15%
    14:00 +24°C° 0 mm 3 m/s 599 mmHg 13%
    15:00 +23°C° 0 mm 4 m/s 599 mmHg 14%
    16:00 +23°C° 0 mm 5 m/s 599 mmHg 14%
    17:00 +23°C° 0 mm 5 m/s 598 mmHg 15%
    18:00 +22°C° 0 mm 4 m/s 599 mmHg 18%
    19:00 +21°C° 0 mm 3 m/s 599 mmHg 21%
    20:00 +20°C° 0 mm 2 m/s 599 mmHg 24%
    21:00 +19°C° 0 mm 2 m/s 598 mmHg 27%
    22:00 +18°C° 0 mm 2 m/s 598 mmHg 30%
    23:00 +17°C° 0 mm 2 m/s 598 mmHg 33%

    30 Avril, Mardi

    Heure Température Précipitation Vent Pression Humidité
    00:00 +16°C° 0 mm 2 m/s 597 mmHg 36%
    01:00 +14°C° 0 mm 3 m/s 596 mmHg 38%
    02:00 +14°C° 0 mm 3 m/s 596 mmHg 41%
    03:00 +13°C° 0 mm 3 m/s 595 mmHg 42%
    04:00 +12°C° 0 mm 3 m/s 595 mmHg 43%
    05:00 +12°C° 0 mm 3 m/s 595 mmHg 45%
    06:00 +13°C° 0 mm 2 m/s 596 mmHg 42%
    07:00 +14°C° 0 mm 2 m/s 596 mmHg 40%
    08:00 +14°C° 0 mm 2 m/s 597 mmHg 37%
    09:00 +15°C° 0 mm 2 m/s 597 mmHg 38%
    10:00 +16°C° 0 mm 2 m/s 598 mmHg 38%
    11:00 +17°C° 0 mm 3 m/s 598 mmHg 39%
    12:00 +17°C° 0.3 mm 2 m/s 598 mmHg 38%
    13:00 +18°C° 0.3 mm 2 m/s 598 mmHg 38%
    14:00 +18°C° 0.3 mm 2 m/s 597 mmHg 38%
    15:00 +18°C° 0.8 mm 2 m/s 596 mmHg 42%
    16:00 +17°C° 0.8 mm 3 m/s 596 mmHg 46%
    17:00 +15°C° 0.8 mm 4 m/s 595 mmHg 50%
    18:00 +15°C° 0.3 mm 4 m/s 595 mmHg 53%
    19:00 +14°C° 0.3 mm 3 m/s 595 mmHg 55%
    20:00 +13°C° 0.3 mm 3 m/s 595 mmHg 57%
    21:00 +13°C° 0.1 mm 3 m/s 595 mmHg 55%
    22:00 +13°C° 0.1 mm 3 m/s 595 mmHg 53%
    23:00 +13°C° 0.1 mm 2 m/s 595 mmHg 52%
    Voir plus